Vorticity
30 20 14 11 16 29 12 15 8 16 12 8 10 8 8 7 5 4 4 3 4 4 2 2 2 3 3 2 2 3 4 3 3 3 2 2 5 4 5 7 8 9 14 16 16
13 18 15 26 14 18 10 25 11 17 11 9 7 11 9 8 6 5 3 3 4 4 3 2 3 2 2 4 4 3 3 2 2 1 1 6 3 6 10 10 13 15 12 10 8
20 23 15 10 26 6 17 18 15 13 12 10 7 9 9 9 9 6 1 4 4 3 4 3 3 2 3 3 3 3 3 2 1 1 3 4 6 11 12 12 9 5 6 5 4
7 2 37 23 6 3 4 14 19 12 12 10 6 8 8 10 8 7 3 3 4 5 4 3 3 3 3 2 2 2 3 0 1 3 7 4 10 10 10 7 4 2 2 1 2
39 45 36 -78 35 44 24 3 24 15 12 10 9 10 10 9 12 9 5 4 4 4 5 3 3 4 4 2 3 1 3 0 6 9 5 9 9 6 5 5 4 3 2 2 2
26 22 1 -3 2 -25 33 13 18 11 9 10 8 7 11 9 11 8 6 5 5 6 5 3 6 5 7 7 3 5 8 7 6 6 9 10 7 4 3 5 5 5 5 4 6
7 2 12 33 22 29 35 12 7 12 10 9 8 6 10 12 7 7 8 6 4 5 5 9 8 9 9 5 4 2 6 3 7 8 9 7 7 5 5 3 2 3 2 4 5
2 14 12 9 21 36 12 8 8 9 10 8 7 9 12 15 8 8 5 8 9 7 -3 -7 -4 -7 -14 2 2 3 12 11 9 8 7 5 1 1 1 1 5 5 6 8 7
-3 21 28 -4 26 6 6 4 6 7 8 6 7 7 7 11 12 7 -4 -3 -7 -6 -3 4 -1 2 8 4 -1 11 6 5 5 6 5 4 0 8 4 6 8 9 11 14 17
19 11 31 8 9 13 6 7 6 6 6 7 6 5 10 9 11 12 15 11 10 7 9 6 3 11 15 13 7 8 8 6 5 2 3 7 -2 9 10 14 18 20 17 11 7
7 6 18 2 6 1 3 5 5 5 4 6 6 4 6 7 10 11 11 12 13 11 10 10 10 9 6 6 8 7 6 3 8 4 5 11 14 17 20 12 8 6 5 8 17
8 15 25 6 5 6 8 5 7 7 6 6 8 6 5 5 6 7 6 7 7 8 8 9 7 7 8 9 6 4 5 7 7 10 11 14 12 10 7 6 8 13 20 22 16
11 19 12 2 7 7 8 8 7 7 8 7 6 6 5 5 8 7 5 8 7 7 8 9 9 6 4 4 4 5 7 11 15 15 11 7 13 17 19 21 21 17 17 17 16
28 8 8 9 4 6 6 5 3 7 6 10 8 11 8 7 7 6 7 5 9 8 6 4 4 2 3 4 6 12 15 9 6 13 19 19 19 23 13 10 11 13 21 16 9
11 21 12 6 7 5 7 6 6 5 8 9 7 7 10 5 9 10 7 9 5 4 4 4 5 10 11 13 15 5 11 24 26 22 20 9 10 9 14 14 17 23 15 6 0
11 15 14 15 10 10 4 3 2 0 11 9 8 7 5 9 2 5 7 6 5 9 13 13 13 13 7 7 16 30 17 6 6 7 7 11 10 11 23 26 24 19 3 -0 1
11 9 14 15 12 13 15 13 8 4 8 10 6 8 8 4 11 10 12 9 11 13 14 9 8 25 29 24 12 5 4 5 8 11 8 7 9 15 2 10 4 2 2 2 1
15 9 10 9 16 17 7 12 12 11 8 5 10 7 7 8 9 13 15 10 6 4 8 25 18 2 3 5 7 6 7 9 12 9 17 23 15 7 3 6 2 0 1 2 2
6 10 16 10 10 10 13 15 17 17 13 9 15 13 11 8 8 7 7 24 27 21 10 2 2 4 5 9 11 13 13 5 6 7 9 15 18 16 3 5 2 2 3 4 8
9 11 7 8 15 18 14 10 9 10 14 9 5 7 8 15 19 17 11 8 5 1 4 13 17 15 13 10 7 5 5 7 7 9 6 5 5 8 7 4 7 7 5 10 5
6 6 8 11 8 4 8 13 18 21 20 19 18 14 9 6 5 5 8 10 13 9 6 4 4 6 5 6 6 7 6 5 4 4 8 9 -2 8 10 6 5 7 5 6 3
4 4 6 5 5 9 10 9 7 8 9 9 9 10 10 9 8 7 5 4 4 5 7 8 9 6 7 5 6 4 5 5 7 6 5 3 -5 4 -4 1 4 2 12 9 6
5 3 5 5 3 3 2 5 6 4 5 4 4 4 4 4 4 5 5 5 6 6 5 5 7 7 7 5 4 5 5 5 4 4 5 6 5 0 5 5 12 24 8 -2 6
18 7 6 6 4 4 2 2 2 1 1 2 2 3 3 3 4 4 5 5 5 5 5 5 4 4 3 4 4 4 4 4 5 3 6 5 7 4 8 5 -4 1 12 17 12
5 14 14 6 4 4 4 4 4 4 2 3 2 2 3 4 4 4 4 4 5 6 6 6 6 5 5 4 4 7 5 5 6 4 6 2 2 11 9 10 12 10 10 10 3
6 4 6 15 13 6 5 4 3 3 2 3 3 3 4 4 3 3 4 5 7 5 5 4 4 5 7 2 2 4 3 5 4 7 9 11 12 12 9 12 8 6 10 1 6
12 13 7 4 10 11 11 8 4 4 4 3 3 3 3 3 4 4 4 3 3 2 2 2 3 5 9 12 14 14 13 11 9 5 5 4 5 3 4 6 6 6 8 6 6
Height
5594 5605 5616 5625 5631 5638 5649 5661 5673 5688 5706 5720 5731 5741 5752 5763 5775 5785 5793 5801 5807 5814 5821 5825 5830 5834 5838 5841 5845 5848 5851 5851 5852 5852 5853 5853 5854 5852 5851 5850 5848 5847 5845 5844 5842
5599 5608 5617 5625 5632 5641 5651 5661 5674 5686 5703 5719 5731 5741 5751 5761 5772 5782 5791 5798 5804 5812 5818 5823 5828 5833 5836 5839 5842 5845 5847 5848 5849 5849 5849 5849 5849 5848 5847 5844 5844 5843 5842 5841 5840
5602 5610 5620 5626 5634 5645 5653 5664 5676 5687 5702 5717 5730 5741 5751 5760 5771 5780 5789 5796 5803 5810 5816 5821 5826 5830 5834 5837 5839 5841 5843 5844 5845 5845 5845 5845 5844 5843 5842 5840 5840 5840 5839 5838 5837
5611 5615 5622 5632 5637 5643 5655 5665 5679 5691 5703 5717 5731 5743 5753 5761 5771 5779 5788 5795 5802 5808 5815 5819 5824 5828 5831 5834 5835 5838 5839 5840 5840 5841 5840 5840 5839 5839 5837 5837 5837 5836 5835 5834 5834
5620 5626 5629 5631 5642 5647 5654 5669 5684 5694 5707 5720 5732 5744 5754 5763 5771 5780 5787 5794 5801 5807 5813 5817 5822 5825 5828 5830 5831 5833 5835 5836 5836 5835 5835 5835 5835 5835 5832 5833 5833 5832 5831 5829 5828
5635 5640 5646 5647 5652 5656 5663 5677 5692 5701 5713 5724 5735 5746 5756 5765 5772 5780 5787 5794 5800 5806 5810 5815 5819 5823 5825 5827 5828 5830 5830 5831 5831 5831 5831 5831 5830 5830 5828 5828 5828 5827 5825 5823 5821
5648 5651 5654 5653 5658 5666 5674 5689 5700 5707 5718 5729 5739 5748 5758 5767 5773 5780 5787 5793 5799 5804 5808 5812 5816 5820 5822 5824 5825 5825 5826 5826 5826 5826 5826 5826 5826 5826 5823 5823 5823 5821 5818 5816 5814
5658 5659 5661 5662 5669 5677 5687 5699 5705 5714 5724 5733 5742 5751 5760 5767 5774 5781 5787 5792 5797 5802 5805 5809 5813 5816 5818 5820 5820 5821 5821 5821 5821 5821 5821 5821 5823 5819 5817 5816 5816 5813 5811 5809 5805
5668 5669 5671 5675 5682 5688 5697 5703 5712 5720 5728 5737 5745 5754 5761 5768 5775 5781 5786 5791 5796 5799 5802 5806 5809 5812 5815 5816 5817 5817 5816 5816 5816 5816 5815 5815 5816 5811 5811 5810 5808 5805 5803 5801 5799
5678 5679 5682 5686 5694 5699 5705 5711 5719 5726 5733 5741 5748 5757 5763 5769 5775 5780 5785 5790 5795 5798 5802 5804 5807 5809 5811 5812 5813 5813 5812 5812 5811 5812 5809 5807 5808 5807 5803 5802 5800 5798 5795 5794 5792
5687 5692 5694 5698 5704 5709 5713 5721 5727 5733 5738 5746 5752 5758 5764 5770 5776 5780 5785 5789 5793 5795 5799 5802 5805 5806 5807 5808 5809 5808 5808 5807 5805 5805 5804 5802 5801 5798 5796 5794 5792 5790 5789 5788 5787
5697 5701 5705 5710 5714 5718 5722 5726 5733 5740 5744 5750 5756 5762 5767 5772 5776 5780 5786 5790 5791 5794 5796 5800 5801 5803 5804 5804 5804 5804 5803 5802 5801 5799 5797 5795 5794 5792 5790 5787 5785 5784 5783 5782 5783
5708 5712 5715 5718 5721 5726 5730 5734 5738 5744 5751 5756 5760 5765 5770 5774 5777 5782 5785 5787 5790 5792 5794 5796 5799 5799 5800 5800 5800 5799 5798 5796 5795 5793 5790 5788 5788 5785 5783 5781 5779 5779 5779 5779 5779
5720 5723 5725 5727 5731 5733 5736 5739 5743 5748 5754 5759 5763 5767 5771 5773 5778 5781 5784 5787 5789 5790 5792 5793 5795 5795 5795 5795 5795 5794 5792 5791 5789 5787 5785 5783 5782 5779 5778 5776 5775 5775 5775 5776 5778
5729 5730 5733 5736 5737 5739 5742 5745 5749 5753 5757 5762 5765 5768 5771 5776 5779 5781 5783 5785 5787 5788 5791 5792 5791 5791 5791 5791 5790 5790 5788 5787 5785 5783 5781 5780 5779 5777 5774 5772 5772 5772 5773 5775 5776
5736 5736 5738 5740 5742 5745 5747 5750 5754 5759 5761 5764 5767 5770 5774 5776 5778 5780 5782 5784 5785 5787 5787 5787 5788 5788 5787 5787 5786 5785 5785 5784 5783 5781 5780 5778 5777 5775 5772 5770 5769 5770 5772 5773 5774
5744 5744 5744 5745 5746 5749 5751 5754 5759 5760 5764 5767 5769 5771 5774 5776 5778 5779 5781 5782 5783 5783 5784 5784 5785 5784 5784 5783 5783 5783 5783 5782 5781 5779 5777 5775 5775 5774 5772 5771 5770 5771 5771 5771 5771
5752 5751 5750 5750 5751 5752 5754 5757 5759 5762 5764 5767 5769 5771 5773 5774 5776 5777 5778 5778 5779 5780 5781 5781 5782 5782 5782 5782 5782 5781 5780 5779 5778 5776 5774 5772 5771 5772 5771 5770 5770 5769 5768 5768 5767
5759 5758 5757 5756 5756 5756 5758 5759 5760 5762 5764 5766 5768 5769 5771 5772 5774 5775 5776 5776 5777 5778 5780 5780 5781 5780 5780 5780 5780 5778 5778 5778 5776 5774 5772 5770 5769 5769 5768 5768 5767 5766 5765 5764 5762
5764 5763 5762 5761 5760 5760 5761 5761 5762 5764 5765 5767 5768 5770 5771 5772 5773 5774 5775 5776 5777 5778 5778 5779 5779 5779 5778 5778 5778 5777 5776 5776 5773 5772 5771 5769 5768 5767 5765 5764 5763 5762 5761 5760 5758
5769 5768 5766 5765 5765 5765 5764 5764 5765 5766 5767 5768 5769 5771 5772 5773 5774 5775 5776 5777 5776 5777 5777 5777 5778 5778 5777 5776 5776 5775 5774 5772 5771 5770 5769 5768 5767 5763 5761 5759 5758 5758 5757 5756 5754
5772 5771 5770 5769 5769 5768 5767 5767 5767 5768 5769 5770 5771 5772 5772 5773 5774 5775 5775 5775 5775 5775 5775 5775 5775 5775 5775 5773 5772 5771 5770 5769 5768 5768 5765 5763 5764 5759 5756 5754 5754 5754 5752 5750 5749
5773 5773 5772 5771 5771 5770 5770 5770 5770 5770 5770 5771 5772 5772 5773 5773 5774 5773 5774 5774 5773 5773 5773 5773 5772 5772 5771 5771 5769 5768 5766 5765 5763 5762 5762 5759 5758 5753 5749 5748 5748 5747 5747 5745 5742
5772 5772 5771 5771 5770 5771 5770 5770 5770 5770 5770 5771 5771 5772 5772 5772 5772 5772 5771 5771 5770 5770 5769 5769 5768 5767 5767 5766 5764 5763 5761 5759 5757 5757 5755 5756 5753 5747 5743 5742 5742 5741 5738 5736 5733
5768 5768 5768 5768 5768 5768 5769 5769 5769 5769 5769 5769 5769 5769 5769 5769 5769 5768 5768 5767 5767 5766 5765 5764 5764 5762 5761 5759 5757 5757 5755 5752 5751 5750 5744 5749 5745 5741 5740 5738 5736 5733 5730 5727 5724
5764 5763 5763 5762 5763 5764 5764 5765 5765 5765 5766 5765 5765 5765 5764 5764 5764 5763 5762 5761 5761 5760 5758 5758 5757 5756 5756 5752 5749 5749 5747 5745 5742 5740 5739 5738 5738 5734 5733 5731 5729 5726 5723 5721 5717
5758 5758 5757 5757 5756 5757 5757 5758 5758 5759 5760 5760 5760 5759 5758 5758 5757 5756 5755 5754 5754 5753 5751 5750 5748 5747 5748 5745 5742 5743 5738 5735 5734 5732 5731 5729 5728 5726 5724 5723 5720 5717 5713 5710 5705